Crestview, FL

2:04 AM CST on February 11, 2016 (GMT -0600)
Sikes

Weather History for KCEW - December, 2012

Change the Weather History Date:

Sunday, December 9, 2012

  Actual Average Record
Temperature  
Mean Temperature 65 °F -  
Max Temperature 75 °F 65 °F 82 °F (1951)
Min Temperature 55 °F 39 °F 19 °F (2006)
Growing Degree Days 15 (Base 50)    
Moisture  
Dew Point 60 °F    
Average Humidity 86    
Maximum Humidity 97    
Minimum Humidity 60    
Precipitation  
Precipitation 0.00 in - - ()
Sea Level Pressure  
Sea Level Pressure 30.03 in    
Wind  
Wind Speed 1 mph (SSE)    
Max Wind Speed 8 mph    
Max Gust Speed -    
Visibility 6 miles    
Events Fog    
Averages and records for this station are not official NWS values.
T = Trace of Precipitation, MM = Missing Value Source: NWS Daily Summary

Daily Weather History Graph

Daily Weather History Graph

Search for Another Location

Airport or City:

Trip Planner

Search our weather history database for the weather conditions in past years. The results will help you decide how hot, cold, wet, or windy it might be!

Date:

Astronomy

Dec. 09, 2012 Rise Set
Actual Time 6:32 AM CST 4:44 PM CST
Civil Twilight 6:06 AM CST 5:11 PM CST
Nautical Twilight 5:36 AM CST 5:41 PM CST
Astronomical Twilight 5:06 AM CST 6:10 PM CST
Moon 2:17 AM CST (12/9) 1:41 PM CST (12/9)
Length of Visible Light 11h 05m
Length of Day
10h 12m
Waning Crescent, 18% of the Moon is Illuminated
Dec 9
Waning Crescent
Dec 13
New
Dec 19
First Quarter
Dec 28
Full
Jan 4
Last Quarter

Hourly Weather History & Observations

Time (CST) Temp. Dew Point Humidity Pressure Visibility Wind Dir Wind Speed Gust Speed Precip Events Conditions
12:33 AM 55.4 °F 53.6 °F 94% 30.03 in 0.2 mi Calm Calm - N/A Fog Fog
12:53 AM 55.9 °F 54.0 °F 93% 30.03 in 0.2 mi Calm Calm - N/A Fog Fog
1:28 AM 57.2 °F 55.4 °F 94% 30.03 in 0.2 mi Calm Calm - N/A Fog Fog
1:53 AM 57.9 °F 55.9 °F 93% 30.03 in 0.2 mi Calm Calm - N/A Fog Fog
2:53 AM 59.0 °F 57.9 °F 96% 30.02 in 0.8 mi Calm Calm - N/A   Mist
3:02 AM 59.0 °F 57.2 °F 94% 30.03 in 1.8 mi Calm Calm - N/A   Overcast
3:10 AM 59.0 °F 57.2 °F 94% 30.03 in 2.0 mi Calm Calm - N/A   Overcast
3:20 AM 59.0 °F 57.2 °F 94% 30.03 in 1.0 mi Calm Calm - N/A   Overcast
3:39 AM 60.8 °F 57.2 °F 88% 30.03 in 0.5 mi Calm Calm - N/A Fog Fog
3:53 AM 60.1 °F 57.9 °F 93% 30.03 in 0.2 mi Calm Calm - N/A Fog Fog
4:53 AM 61.0 °F 60.1 °F 97% 30.04 in 0.2 mi Calm Calm - N/A Fog Fog
5:53 AM 61.0 °F 60.1 °F 97% 30.06 in 0.2 mi Calm Calm - N/A Fog Fog
6:53 AM 62.1 °F 61.0 °F 96% 30.08 in 0.2 mi Calm Calm - N/A Fog Fog
7:47 AM 64.4 °F 62.6 °F 94% 30.09 in 1.0 mi ESE 3.5 mph - N/A   Mist
7:53 AM 64.0 °F 62.1 °F 93% 30.09 in 2.0 mi ESE 3.5 mph - N/A   Overcast
8:05 AM 64.4 °F 62.6 °F 94% 30.09 in 4.0 mi ESE 4.6 mph - N/A   Overcast
8:53 AM 64.9 °F 64.0 °F 97% 30.10 in 9.0 mi SSE 3.5 mph - N/A   Overcast
9:23 AM 66.2 °F 62.6 °F 88% 30.11 in 10.0 mi SSE 4.6 mph - N/A   Overcast
9:53 AM 69.1 °F 63.0 °F 81% 30.11 in 10.0 mi ESE 3.5 mph - N/A   Mostly Cloudy
10:04 AM 69.8 °F 62.6 °F 78% 30.10 in 10.0 mi SE 5.8 mph - N/A   Mostly Cloudy
10:18 AM 71.6 °F 62.6 °F 73% 30.10 in 10.0 mi Variable 4.6 mph - N/A   Scattered Clouds
10:53 AM 73.9 °F 63.0 °F 68% 30.08 in 10.0 mi Variable 4.6 mph - N/A   Mostly Cloudy
11:16 AM 73.4 °F 62.6 °F 69% 30.08 in 10.0 mi South 3.5 mph - N/A   Mostly Cloudy
11:53 AM 73.9 °F 60.1 °F 62% 30.06 in 10.0 mi SSW 6.9 mph - N/A   Mostly Cloudy
12:53 PM 75.9 °F 61.0 °F 60% 30.02 in 10.0 mi Variable 4.6 mph - N/A   Scattered Clouds
1:53 PM 73.9 °F 62.1 °F 66% 30.02 in 10.0 mi South 8.1 mph - N/A   Mostly Cloudy
2:53 PM 73.0 °F 62.1 °F 68% 30.01 in 10.0 mi South 8.1 mph - N/A   Mostly Cloudy
3:53 PM 72.0 °F 62.1 °F 71% 30.01 in 10.0 mi South 6.9 mph - N/A   Partly Cloudy
4:13 PM 71.6 °F 62.6 °F 73% 30.02 in 10.0 mi South 4.6 mph - N/A   Mostly Cloudy
4:48 PM 71.6 °F 62.6 °F 73% 30.02 in 10.0 mi South 4.6 mph - N/A   Overcast
4:53 PM 70.0 °F 62.1 °F 76% 30.01 in 10.0 mi SSE 3.5 mph - N/A   Mostly Cloudy
5:53 PM 66.9 °F 61.0 °F 81% 30.01 in 10.0 mi Calm Calm - N/A   Clear
6:53 PM 64.0 °F 60.1 °F 87% 30.01 in 10.0 mi Calm Calm - N/A   Clear
7:53 PM 62.1 °F 59.0 °F 90% 30.01 in 10.0 mi Calm Calm - N/A   Partly Cloudy
8:42 PM 62.6 °F 59.0 °F 88% 30.02 in 10.0 mi Calm Calm - N/A   Mostly Cloudy
8:53 PM 62.1 °F 59.0 °F 90% 30.01 in 10.0 mi Calm Calm - N/A   Mostly Cloudy
9:06 PM 64.4 °F 60.8 °F 88% 30.01 in 10.0 mi Calm Calm - N/A   Scattered Clouds
9:53 PM 62.1 °F 60.1 °F 93% 30.00 in 10.0 mi Calm Calm - N/A   Clear
10:21 PM 62.6 °F 60.8 °F 94% 30.00 in 1.8 mi Calm Calm - N/A   Clear
10:30 PM 62.6 °F 60.8 °F 94% 30.00 in 3.0 mi Calm Calm - N/A   Clear
10:53 PM 64.0 °F 62.1 °F 93% 29.98 in 8.0 mi Calm Calm - N/A   Clear
11:39 PM 62.6 °F 60.8 °F 94% 29.97 in 1.2 mi Calm Calm - N/A   Partly Cloudy
11:43 PM 62.6 °F 60.8 °F 94% 29.97 in 3.0 mi Calm Calm - N/A   Partly Cloudy
11:53 PM 63.0 °F 61.0 °F 93% 29.96 in 2.0 mi Calm Calm - N/A   Partly Cloudy
11:57 PM 62.6 °F 60.8 °F 94% 29.97 in 1.0 mi Calm Calm - N/A   Mist